Regional Weather Roundup
Issued by NWS

Home | Current Version | Previous Version | Text Only | Print | Product List | Glossary Off
Versions: 1 2 3 4 5 6 7 8 9 10 11 12 13 14 15 16 17 18 19 20 21 22 23 24 25 26 27 28 29 30 31 32 33 34 35 36 37 38 39 40 41 42 43 44 45 46 47 48 49 50

000
ASUS43 KMPX 310301
RWRMN
WEATHER ROUNDUP FOR MINNESOTA
NATIONAL WEATHER SERVICE TWIN CITIES/CHANHASSEN MN
1000 PM CDT MON MAY 30 2016


NOTE: "FAIR" INDICATES FEW OR NO CLOUDS BELOW 12,000 FEET WITH NO
SIGNIFICANT WEATHER AND/OR OBSTRUCTIONS TO VISIBILITY. N/A MEANS
CURRENT SKY AND/OR WEATHER CONDITIONS ARE NOT AVAILABLE.

MNZ060>063-068>070-310400-
   Twin Cities Metro

CITY           SKY/WX    TMP DP  RH WIND       PRES   REMARKS
TWIN CITIES    MOCLDY    75  53  46 SE12      29.89S
ST PAUL        MOCLDY    73  54  51 SE8       29.90R
CRYSTAL        PTCLDY    75  50  41 E9        29.87S
BLAINE         PTCLDY    75  54  46 SE9       29.89S
EDEN PRAIRIE   PTCLDY    77  50  38 E9        29.88R
SOUTH ST PAUL  PTCLDY    74  50  42 SE3       29.90S
LAKE ELMO      FAIR      72  54  53 E6        29.92R
$$
MNZ001>005-007-008-013>017-022>024-027-028-310400-
   Northwest Minnesota

CITY           SKY/WX    TMP DP  RH WIND       PRES   REMARKS
BEMIDJI        CLOUDY    59  55  86 E6        29.88R
HALLOCK        RAIN      63  59  88 S8        29.88R
ROSEAU         CLOUDY    66  55  68 E18       29.89S
WARROAD        CLOUDY    64  57  77 NE16      29.92S
THIEF RVR FALL CLOUDY    63  54  72 NE8       29.86R
CROOKSTON      RAIN      59  57  94 N12       29.87R
FOSSTON        MOCLDY    64  52  63 E7        29.84S
DETROIT LAKES  CLOUDY    70  54  56 E10       29.83S THUNDER
MOORHEAD       CLOUDY    73  55  53 SE12      29.74F
PARK RAPIDS    LGT RAIN  69  54  58 SE5       29.88R
MAHNOMEN       MOCLDY    68  55  63 E13       29.82S
$$
MNZ006-009>011-018-025>026-310400-
   North Central Minnesota

CITY           SKY/WX    TMP DP  RH WIND       PRES   REMARKS
BAUDETTE       CLOUDY    65  49  56 E17       29.92R
FLAG ISLAND    CLOUDY    63  50  63 E12G18    29.94R
INTL FALLS     CLOUDY    63  49  60 E12       29.96R
WASKISH        MOCLDY    66  50  55 E10       29.90S
BIG FORK       CLOUDY    64  48  55 NE5       29.93R
LONGVILLE      PTCLDY    57  55  94 CALM      29.90R FOG
GRAND RAPIDS   MOCLDY    65  52  62 E5        29.93R
CRANE LAKE     CLOUDY    61  48  63 CALM      30.00R
ORR            CLOUDY    63  45  51 CALM      29.94R
COOK           CLOUDY    63  48  59 CALM      29.96R
WALKER         FAIR      65  55  71 SE6       29.89R
$$
MNZ012-019>021-037-310400-
   Northeast Minnesota

CITY           SKY/WX    TMP DP  RH WIND       PRES   REMARKS
DULUTH         CLOUDY    65  44  46 E13       29.96R
ELY            CLEAR     63  46  55 E9        29.99R
HIBBING        CLOUDY    67  47  48 E7        29.95R
EVELETH        CLOUDY    63  48  59 CALM      29.97R
DULUTH HARBOR  CLOUDY    54  46  76 NE8       29.95F
TWO HARBORS    CLOUDY    66  50  55 CALM      29.97R
SILVER BAY     CLOUDY    63  45  51 NE3       29.98R
GRAND MARAIS     N/A     50  42  74 NE13      30.05R
G MARAIS ARPRT CLOUDY    54  43  66 E7        30.06R
$$
MNZ029>031-032-039>041-046>048-054>057-064-310400-
   West Central Minnesota

CITY           SKY/WX    TMP DP  RH WIND       PRES   REMARKS
FERGUS FALLS   CLOUDY    73  54  49 SE14      29.75S
WHEATON        CLOUDY    75  55  50 SE9       29.76F
MORRIS         CLOUDY    75  55  50 SE12G18   29.79S
ALEXANDRIA     PTCLDY    72  50  45 SE14      29.84S
ELBOW LAKE     FAIR      74  55  51 SE10G18   29.80S
WADENA         MOCLDY    70  54  56 E8        29.85R
GLENWOOD       MOCLDY    72  54  53 E12       29.84F
APPLETON       CLOUDY    75  55  50 SE9       29.79R
ORTONVILLE     PTCLDY    72  55  56 SE6       29.77S
MADISON        CLOUDY    72  54  53 S8        29.78S
WILLMAR        FAIR      75  57  53 SE13      29.84S
$$
MNZ033>034-036-042>043-049>051-058-059-310400-
   Central Minnesota

CITY           SKY/WX    TMP DP  RH WIND       PRES   REMARKS
ST CLOUD       PTCLDY    73  52  47 E7        29.87S
SAUK CENTRE    FAIR      71  52  50 E12       29.85S
PAYNESVILLE    CLOUDY    73  50  44 E9        29.86R
AITKIN         CLEAR     64  50  59 E5        29.89S
PINE RIVER     PTCLDY    66  55  68 E8        29.92R
BRAINERD       MOCLDY    69  53  56 E3        29.90R
STAPLES        PTCLDY    70  52  52 E5        29.87R
LONG PRAIRIE   FAIR      70  52  52 E10G16    29.87R
LITTLE FALLS   PTCLDY    70  52  52 E5        29.88R
LITCHFIELD     PTCLDY    72  55  56 SE8       29.87R
BUFFALO        CLOUDY    71  51  49 E7        29.88S
MAPLE LAKE     PTCLDY    75  54  48 E3        29.88R
HUTCHINSON     CLOUDY    71  58  64 E8        29.88R
$$
MNZ037-044-045-052-053-310400-
   East Central Minnesota

CITY           SKY/WX    TMP DP  RH WIND       PRES   REMARKS
PRINCETON      CLOUDY    72  55  56 E6        29.89S
MORA           PTCLDY    68  54  60 E5        29.92R
CAMBRIDGE      CLOUDY    73  57  56 SE6       29.88S
RUSH CITY      PTCLDY    69  54  58 E3        29.91R
MOOSE LAKE     MOCLDY    59  55  88 CALM      29.91S
HINCKLEY       FAIR      63  59  88 NE3       29.92R
CLOQUET        CLOUDY    66  52  59 E6        29.94S
MCGREGOR       CLEAR     63  52  67 E6        29.92S
$$
MNZ071>073-080-081-089-090-097-098-310400-
   Southwest Minnesota

CITY           SKY/WX    TMP DP  RH WIND       PRES   REMARKS
MONTEVIDEO     CLOUDY    73  61  64 S9        29.82S
GRANITE FALLS  CLOUDY    79  59  50 E12       29.82S
CANBY          PTCLDY    75  58  55 S3        29.80R
MARSHALL       CLOUDY    75  56  51 SE7       29.81R
REDWOOD FALLS  CLOUDY    75  57  53 SE10      29.83R
OLIVIA         CLOUDY    75  55  50 SE10      29.83R
PIPESTONE      CLOUDY    73  54  49 SE8       29.82R
WINDOM         CLOUDY    73  57  56 SE16G23   29.85R
WORTHINGTON    CLOUDY    72  58  61 S17       29.85R
JACKSON        CLOUDY    73  54  49 S15G21    29.88R
TRACY          MOCLDY    74  56  52 SE5       29.83R
SLAYTON        CLOUDY    71  55  57 SE8       29.84R
$$
MNZ065>067-074>077-082>085-091>093-310400-
   South Central Minnesota

CITY           SKY/WX    TMP DP  RH WIND       PRES   REMARKS
MANKATO        CLOUDY    73  55  53 S13G21    29.89R
NEW ULM        CLOUDY    73  55  53 SE15      29.87R
ST JAMES       PTCLDY    66  55  68 SE20G25   29.88R
FAIRMONT       PTCLDY    70  57  64 SE18G24   29.89R
GLENCOE        MOCLDY    73  59  62 E10       29.86S
FARIBAULT      PTCLDY    73  57  56 SE8       29.91R
OWATONNA       PTCLDY    72  55  56 SE12      29.92R
WASECA         PTCLDY    72  55  56 S13G20    29.91S
ALBERT LEA     CLOUDY    70  57  64 S12         N/A
$$
MNZ078>079-086>088-094>096-310400-
   Southeast Minnesota

CITY           SKY/WX    TMP DP  RH WIND       PRES   REMARKS
ROCHESTER      CLOUDY    69  56  62 S8        29.95R
RED WING       CLOUDY    70  54  56 E5        29.91S
STANTON        CLOUDY    74  51  43 SE8       29.90R
DODGE CENTER   CLOUDY    70  57  64 S13       29.94S
WINONA         CLOUDY    72  54  53 CALM      29.94S
AUSTIN         CLOUDY    68  54  60 S7G17     29.92F
PRESTON        CLOUDY    67  55  66 S5        29.97F
$$
ABBREVIATIONS USED IN REMARKS
   TC - TEMPERATURES IN CELSIUS
  WCI - WIND CHILL INDEX
   HX - HEAT INDEX
  VSB - VISIBILITY
$$



USA.gov is the U.S. government's official web portal to all federal, state and local government web resources and services.